GSAT-19 (42747 NORAD) Tracking and Keplerian Element Data

This shows tracking and keplerian element data for the satellite.

Feedback or suggestion? Click here.




ElementValue
Catalog42747
NameGSAT-19
Epoch Orbit688
Epoch Day106.86654302
Epoch Year2019
RAAN100.9179
Inclination0.0886
Eccentricity0.0005543
Argument of Perigee302.3705
Mean Anonmoly161.2452
Mean Motion1.0027295
Decay Rate1.03E-06
L11 42747U 17031A 19106.86654302 .00000103 00000-0 00000-0 0 9991
L22 42747 0.0886 100.9179 0005543 302.3705 161.2452 1.00272950 6881

Live tracking and technical data element details for GSAT-19 (NORAD 42747). GSAT-19 can be tracked NOW for your location showing map with azimuth and elevation plus other details from your city location.

Track the satellite on the map from your city or location and see movement details for azimuth, elevation, latitude, longitude, range, height, and movement on the map or in text.







IsCatalogInMostPopularTable: catalog: 42747, numindb: 216
Update: records affected: 1



GetName: 42747 GSAT-19

Hit Count: updated at: Sat, 20 Apr 2019 00:11:39 GMT